New York Downtown Manhattan/w, NY

2:54 PM EDT on September 20, 2019 (GMT -0400)
New York Downtown Manhattan/w

Weather History for KJRB - May, 2019

Change the Weather History Date:

Thursday, May 9, 2019

  Actual Average (KEWR) Record (KEWR)
Temperature  
Mean Temperature 56 °F -  
Max Temperature 60 °F 68 °F 93 °F (2000)
Min Temperature 54 °F 50 °F 33 °F (1947)
Degree Days  
Heating Degree Days 8    
Growing Degree Days 6 (Base 50)    
Moisture  
Dew Point 46 °F    
Average Humidity 68    
Maximum Humidity 84    
Minimum Humidity 49    
Precipitation  
Precipitation 0.00 in - - ()
Sea Level Pressure  
Sea Level Pressure 30.29 in    
Wind  
Wind Speed 10 mph (ENE)    
Max Wind Speed 20 mph    
Max Gust Speed 23 mph    
Visibility 10 miles    
Events      
Averages and records for this station are not official NWS values.
T = Trace of Precipitation, MM = Missing Value Source: NWS Daily Summary

Daily Weather History Graph

Daily Weather History Graph

Search for Another Location

Airport or City:

Astronomy

May. 09, 2019 Rise Set
Actual Time 5:45 AM EDT 8:00 PM EDT
Civil Twilight 5:15 AM EDT 8:30 PM EDT
Nautical Twilight 4:37 AM EDT 9:08 PM EDT
Astronomical Twilight 3:56 AM EDT 9:49 PM EDT
Moon 9:37 AM EDT (5/9) No Moon Set
Length of Visible Light 15h 15m
Length of Day
14h 14m
Waxing Crescent, 24% of the Moon is Illuminated
May 9
Waxing Crescent
May 11
First Quarter
May 18
Full
May 26
Last Quarter
Jun 3
New

Hourly Weather History & Observations

Time (EDT) Temp. Dew Point Humidity Pressure Visibility Wind Dir Wind Speed Gust Speed Precip Events Conditions
12:56 AM 57.0 °F 52.0 °F 83% 30.28 in 10.0 mi NE 3.5 mph - N/A   Mostly Cloudy
1:56 AM 57.0 °F 52.0 °F 83% 30.29 in 10.0 mi NE 6.9 mph - N/A   Mostly Cloudy
2:56 AM 55.9 °F 51.1 °F 84% 30.30 in 10.0 mi NNE 10.4 mph - N/A   Overcast
3:56 AM 55.9 °F 51.1 °F 84% 30.30 in 10.0 mi NE 15.0 mph - N/A   Overcast
4:56 AM 54.0 °F 48.9 °F 83% 30.30 in 10.0 mi NE 13.8 mph - N/A   Clear
5:56 AM 54.0 °F 46.9 °F 77% 30.30 in 10.0 mi NE 11.5 mph - N/A   Clear
6:56 AM 54.0 °F 43.0 °F 66% 30.33 in 10.0 mi NE 17.3 mph 23.0 mph N/A   Overcast
7:56 AM 55.0 °F 41.0 °F 59% 30.34 in 10.0 mi NE 19.6 mph - N/A   Scattered Clouds
8:56 AM 55.9 °F 39.9 °F 55% 30.35 in 10.0 mi NE 13.8 mph - N/A   Overcast
9:56 AM 57.9 °F 42.1 °F 56% 30.33 in 10.0 mi ENE 8.1 mph 16.1 mph N/A   Overcast
10:56 AM 57.9 °F 43.0 °F 58% 30.33 in 10.0 mi ENE 12.7 mph - N/A   Overcast
11:56 AM 59.0 °F 39.9 °F 49% 30.32 in 10.0 mi ENE 10.4 mph 20.7 mph N/A   Overcast
12:56 PM 59.0 °F 39.9 °F 49% 30.32 in 10.0 mi ESE 10.4 mph 18.4 mph N/A   Overcast
1:56 PM 59.0 °F 43.0 °F 55% 30.32 in 10.0 mi ENE 9.2 mph 18.4 mph N/A   Overcast
2:56 PM 57.9 °F 42.1 °F 56% 30.30 in 10.0 mi ENE 12.7 mph 16.1 mph N/A   Overcast
3:56 PM 57.0 °F 42.1 °F 57% 30.30 in 10.0 mi East 12.7 mph 18.4 mph N/A   Overcast
4:56 PM 55.9 °F 43.0 °F 62% 30.29 in 10.0 mi ENE 10.4 mph 16.1 mph N/A   Overcast
5:56 PM 55.0 °F 45.0 °F 69% 30.29 in 10.0 mi ENE 9.2 mph 18.4 mph N/A   Overcast
6:56 PM 55.0 °F 46.0 °F 72% 30.27 in 10.0 mi ENE 10.4 mph 17.3 mph N/A   Overcast
7:56 PM 55.0 °F 46.9 °F 74% 30.26 in 10.0 mi East 8.1 mph - N/A   Overcast
8:56 PM 55.0 °F 48.0 °F 77% 30.26 in 10.0 mi NE 15.0 mph 21.9 mph N/A   Overcast
9:56 PM 55.0 °F 48.0 °F 77% 30.25 in 10.0 mi NE 11.5 mph 18.4 mph N/A   Overcast
10:09 PM 55.4 °F 48.2 °F 77% 30.24 in 10.0 mi NE 13.8 mph 20.7 mph N/A   Overcast
10:56 PM 55.9 °F 48.0 °F 75% 30.24 in 10.0 mi NE 10.4 mph 17.3 mph N/A   Overcast
11:56 PM 57.0 °F 48.0 °F 72% 30.24 in 10.0 mi ENE 9.2 mph - N/A   Overcast